Location: Unspecified
(0.0000°N, 0.0000°E)
Time: 19:40:30
(UTC+00:00)

Hubble Space Telescope - Pass Details

Date: 25 April 2018
Orbit: 537 x 540 km, 28.5° (Epoch: 11 November)

Event Time Altitude Azimuth Distance (km) Brightness Sun altitude
Exits shadow 03:43:51 20° 67° (ENE) 1,264 3.3 -32.6°
Drops below altitude 10° 03:45:40 10° 88° (E) 1,784 4.2 -32.1°
Sets 03:48:11 0° 100° (E) 2,676 5.2 -31.5°
